Flag for Germany

Past Weather in Pirna, Saxony, Germany — Yesterday and Last 2 Weeks

Currently: 30 °F. Passing clouds. (Weather station: Dresden-Klotzsche, Germany). See more current weather

Past Weather in Pirna — Graph

°F

Pirna Temperature Yesterday

Maximum temperature yesterday: 32 °F (at 12:20 am)
Minimum temperature yesterday: 30 °F (at 4:20 am)
Average temperature yesterday: 32 °F

High & Low Weather Summary for the Past Weeks

 TemperatureHumidityPressure
High50 °F (Jan 21, 1:50 pm)100% (Jan 10, 9:20 pm)30.24 "Hg (Jan 10, 9:20 pm)
Low18 °F (Jan 17, 10:20 pm)50% (Jan 20, 1:20 pm)29.30 "Hg (Jan 22, 9:20 am)
Average33 °F84%29.79 "Hg
* Reported Jan 10 9:20 pm — Jan 25 9:20 pm, Pirna. Weather by CustomWeather, © 2021

Note: Actual official high and low records may vary slightly from our data, if they occured in-between our weather recording intervals... More about our weather records

Pirna Weather History for the Previous 24 Hours

Scroll right to see more
 ConditionsComfort  
Time TempWeatherWind HumidityBarometerVisibility
9:20 pm
Mon, Jan 25
30 °FPassing clouds.6 mph86%29.74 "HgN/A
8:50 pm30 °FPassing clouds.7 mph86%29.74 "HgN/A
8:20 pm30 °FClear.5 mph86%29.71 "Hg10 mi
7:50 pm30 °FClear.3 mph80%29.71 "Hg10 mi
7:20 pm30 °FPassing clouds.5 mph80%29.71 "HgN/A
6:50 pm28 °FPassing clouds.6 mph86%29.68 "HgN/A
6:20 pm28 °FPassing clouds.5 mph86%29.68 "HgN/A
5:50 pm30 °FPassing clouds.3 mph80%29.68 "HgN/A
5:20 pm32 °FClear.3 mph80%29.68 "Hg10 mi
4:50 pm32 °FClear.3 mph80%29.65 "Hg10 mi
4:20 pm32 °FPartly sunny.3 mph80%29.65 "HgN/A
3:50 pm32 °FPartly sunny.3 mph80%29.62 "HgN/A
3:20 pm34 °FPartly sunny.3 mph75%29.62 "HgN/A
2:20 pm32 °FPassing clouds.6 mph80%29.62 "HgN/A
1:50 pm34 °FScattered clouds.7 mph75%29.59 "HgN/A
12:50 pm34 °FPartly sunny.6 mph81%29.59 "HgN/A
12:20 pm34 °FPartly sunny.5 mph81%29.59 "HgN/A
11:50 am34 °FPassing clouds.3 mph81%29.59 "HgN/A
11:20 am36 °FPassing clouds.3 mph81%29.59 "HgN/A
10:50 am32 °FScattered clouds.2 mph87%29.59 "HgN/A
10:20 am32 °FBroken clouds.2 mph87%29.59 "HgN/A
9:50 am32 °FBroken clouds.3 mph87%29.56 "HgN/A
9:20 am30 °FBroken clouds.5 mph93%29.56 "HgN/A
8:50 am32 °FPartly sunny.3 mph87%29.56 "HgN/A
8:20 am32 °FPartly sunny.3 mph87%29.56 "HgN/A
7:50 am30 °FPartly cloudy.2 mph93%29.53 "HgN/A
7:20 am30 °FPassing clouds.1 mph93%29.53 "HgN/A
6:50 am30 °FPassing clouds.2 mph93%29.53 "HgN/A
6:20 am30 °FPassing clouds.3 mph93%29.53 "HgN/A
5:50 am30 °FLight snow. Partly cloudy.7 mph93%29.50 "HgN/A
5:20 am32 °FPartly cloudy.6 mph93%29.50 "HgN/A
4:50 am32 °FLight snow. Partly cloudy.6 mph93%29.50 "Hg4 mi
4:20 am32 °FLight snow. Ice fog.7 mph100%29.50 "Hg3 mi
3:50 am32 °FLight snow. Ice fog.7 mph100%29.50 "Hg2 mi
3:20 am32 °FLight snow. Passing clouds.5 mph100%29.50 "Hg3 mi
2:50 am32 °FLight snow. Passing clouds.5 mph100%29.50 "Hg4 mi
2:20 am32 °FLight snow. Passing clouds.6 mph93%29.50 "Hg4 mi
1:50 am32 °FLight snow. Passing clouds.7 mph93%29.50 "Hg4 mi
1:20 am32 °FLight snow. Low clouds.7 mph100%29.50 "Hg4 mi
12:50 am32 °FLight snow. Ice fog.6 mph100%29.50 "Hg2 mi
12:20 am32 °FLight snow. Ice fog.5 mph100%29.47 "Hg3 mi
11:50 pm
Sun, Jan 24
32 °FLight snow. Ice fog.6 mph100%29.47 "Hg3 mi
11:20 pm32 °FChilly.6 mph100%29.47 "HgN/A
10:50 pm32 °FLight snow. Ice fog.7 mph100%29.47 "Hg2 mi
10:20 pm32 °FLight snow. Ice fog.7 mph100%29.47 "Hg2 mi
Weather by CustomWeather, © 2021

See weather overview